| time (UTC) | temp F | wind direction | speed knots | gust knots | rain 1hr in | rain 24hr in | rain mn in | humidity % | barometer mb |
| 20260508104928 | 0 | 239 | 5.2 | 6.1 | 0.00 | 0.00 | 0.00 | 1002.4 | |
| 20260508104425 | 0 | 246 | 4.3 | 8.7 | 0.00 | 0.00 | 0.00 | 1002.4 | |
| 20260508103922 | 0 | 286 | 5.2 | 7.0 | 0.00 | 0.00 | 0.00 | 1002.5 | |
| 20260508103419 | 0 | 236 | 2.6 | 7.0 | 0.00 | 0.00 | 0.00 | 1002.2 | |
| 20260508102916 | 0 | 282 | 2.6 | 8.7 | 0.00 | 0.00 | 0.00 | 1002.2 | |
| 20260508102414 | 0 | 284 | 10.4 | 13.0 | 0.00 | 0.00 | 0.00 | 1002.3 | |
| 20260508101911 | 0 | 289 | 2.6 | 8.7 | 0.00 | 0.00 | 0.00 | 1002.2 | |
| 20260508101409 | 0 | 284 | 2.6 | 7.8 | 0.00 | 0.00 | 0.00 | 1002.0 | |
| 20260508100905 | 0 | 236 | 2.6 | 12.2 | 0.00 | 0.00 | 0.00 | 1002.2 | |
| 20260508100405 | 0 | 275 | 7.8 | 8.7 | 0.00 | 0.00 | 0.00 | 1002.2 | |
| 20260508095900 | 0 | 269 | 7.8 | 11.3 | 0.00 | 0.00 | 0.00 | 1002.1 | |
| 20260508095358 | 0 | 230 | 4.3 | 6.1 | 0.00 | 0.00 | 0.00 | 1002.0 | |
| 20260508094854 | 0 | 295 | 1.7 | 4.3 | 0.00 | 0.00 | 0.00 | 1002.0 | |
| 20260508094351 | 0 | 286 | 2.6 | 2.6 | 0.00 | 0.00 | 0.00 | 1002.0 | |
| 20260508093848 | 0 | 290 | 0.0 | 1.7 | 0.00 | 0.00 | 0.00 | 1001.8 | |
| 20260508093346 | 0 | 270 | 0.0 | 0.9 | 0.00 | 0.00 | 0.00 | 1001.7 | |
| 20260508092843 | 0 | 23 | 0.0 | 1.7 | 0.00 | 0.00 | 0.00 | 1001.7 | |
| 20260508092341 | 0 | 225 | 1.7 | 1.7 | 0.00 | 0.00 | 0.00 | 1001.6 | |
| 20260508091839 | 0 | 90 | 0.0 | 0.9 | 0.00 | 0.00 | 0.00 | 1001.7 | |
| 20260508091335 | 0 | 180 | 0.0 | 0.9 | 0.00 | 0.00 | 0.00 | 1001.5 | |
| 20260508090833 | 0 | 80 | 1.7 | 2.6 | 0.00 | 0.00 | 0.00 | 1001.4 | |
| 20260508090331 | 0 | 225 | 0.0 | 1.7 | 0.00 | 0.00 | 0.00 | 1001.5 | |
| 20260508085826 | 0 | 0 | 0.0 | 0.9 | 0.00 | 0.00 | 0.00 | 1001.5 | |
| 20260508085324 | 0 | 229 | 0.0 | 0.9 | 0.00 | 0.00 | 0.00 | 1001.8 | |
| 20260508084820 | 0 | 237 | 0.9 | 3.5 | 0.00 | 0.00 | 0.00 | 1001.7 | |
| 20260508084317 | 0 | 238 | 1.7 | 2.6 | 0.00 | 0.00 | 0.00 | 1001.5 | |
| 20260508083814 | 0 | 307 | 1.7 | 5.2 | 0.00 | 0.00 | 0.00 | 1001.4 | |
| 20260508083312 | 0 | 279 | 1.7 | 2.6 | 0.00 | 0.00 | 0.00 | 1001.4 | |
| 20260508082811 | 0 | 325 | 0.9 | 1.7 | 0.00 | 0.00 | 0.00 | 1001.2 | |
| 20260508082309 | 0 | 257 | 0.9 | 2.6 | 0.00 | 0.00 | 0.00 | 1001.4 | |
| 20260508081806 | 0 | 282 | 0.9 | 1.7 | 0.00 | 0.00 | 0.00 | 1001.0 | |
| 20260508081303 | 0 | 261 | 1.7 | 1.7 | 0.00 | 0.00 | 0.00 | 1001.2 | |
| 20260508080800 | 0 | 340 | 0.0 | 1.7 | 0.00 | 0.00 | 0.00 | 1001.1 | |
| 20260508080258 | 0 | 255 | 1.7 | 2.6 | 0.00 | 0.00 | 0.00 | 1000.9 | |
| 20260508075754 | 0 | 270 | 0.9 | 1.7 | 0.00 | 0.00 | 0.00 | 1001.2 | |
| 20260508075251 | 0 | 246 | 0.9 | 1.7 | 0.00 | 0.00 | 0.00 | 1000.9 | |
| 20260508074749 | 0 | 162 | 0.0 | 0.0 | 0.00 | 0.00 | 0.00 | 1001.0 | |
| 20260508074246 | 0 | 158 | 0.0 | 1.7 | 0.00 | 0.00 | 0.00 | 1001.0 | |
| 20260508073743 | 0 | 180 | 0.0 | 1.7 | 0.00 | 0.00 | 0.00 | 1001.1 | |
| 20260508073241 | 0 | 75 | 0.9 | 0.9 | 0.00 | 0.00 | 0.00 | 1000.9 | |
| 20260508072737 | 0 | 132 | 1.7 | 1.7 | 0.00 | 0.00 | 0.00 | 1001.2 | |
| 20260508072234 | 0 | 203 | 0.0 | 1.7 | 0.00 | 0.00 | 0.00 | 1001.0 | |
| 20260508071731 | 0 | 201 | 2.6 | 3.5 | 0.00 | 0.00 | 0.00 | 1000.8 | |
| 20260508071229 | 0 | 203 | 2.6 | 2.6 | 0.00 | 0.00 | 0.00 | 1000.8 | |
| 20260508070727 | 0 | 214 | 1.7 | 2.6 | 0.00 | 0.00 | 0.00 | 1001.0 | |
| 20260508070225 | 0 | 236 | 0.0 | 0.0 | 0.00 | 0.00 | 0.00 | 1000.9 | |
| 20260508065722 | 0 | 236 | 0.0 | 2.6 | 0.00 | 0.00 | 0.00 | 1000.7 | |
| 20260508065220 | 0 | 294 | 0.9 | 1.7 | 0.00 | 0.00 | 0.00 | 1000.9 | |
| 20260508064717 | 0 | 270 | 0.9 | 2.6 | 0.00 | 0.00 | 0.00 | 1000.7 | |
| 20260508064216 | 0 | 20 | 0.9 | 0.9 | 0.00 | 0.00 | 0.00 | 1001.0 | |
| 20260508063713 | 0 | 270 | 1.7 | 1.7 | 0.00 | 0.00 | 0.00 | 1000.8 | |
| 20260508063210 | 0 | 339 | 1.7 | 1.7 | 0.00 | 0.00 | 0.00 | 1001.0 | |
| 20260508062707 | 0 | 0 | 0.9 | 1.7 | 0.00 | 0.00 | 0.00 | 1000.5 | |
| 20260508062204 | 0 | 346 | 0.0 | 0.9 | 0.00 | 0.00 | 0.00 | 1000.7 | |
| 20260508061702 | 0 | 194 | 0.0 | 0.9 | 0.00 | 0.00 | 0.00 | 1000.6 | |
| 20260508061159 | 0 | 157 | 2.6 | 3.5 | 0.00 | 0.00 | 0.00 | 1000.6 | |
| 20260508060655 | 0 | 140 | 2.6 | 2.6 | 0.00 | 0.00 | 0.00 | 1000.6 | |
| 20260508060153 | 0 | 152 | 1.7 | 2.6 | 0.00 | 0.00 | 0.00 | 1000.6 | |
| 20260508055648 | 0 | 147 | 1.7 | 2.6 | 0.00 | 0.00 | 0.00 | 1000.5 | |
| 20260508055145 | 0 | 162 | 0.9 | 0.9 | 0.00 | 0.00 | 0.00 | 1000.3 | |
| 20260508054642 | 0 | 275 | 1.7 | 2.6 | 0.00 | 0.00 | 0.00 | 1000.4 | |
| 20260508054139 | 0 | 259 | 1.7 | 1.7 | 0.00 | 0.00 | 0.00 | 1000.7 | |
| 20260508053636 | 0 | 26 | 0.0 | 0.9 | 0.00 | 0.00 | 0.00 | 1000.5 | |
| 20260508053134 | 0 | 161 | 1.7 | 1.7 | 0.00 | 0.00 | 0.00 | 1000.5 | |
| 20260508052631 | 0 | 160 | 0.0 | 0.9 | 0.00 | 0.00 | 0.00 | 1000.5 | |
| 20260508052128 | 0 | 249 | 0.0 | 0.0 | 0.00 | 0.00 | 0.00 | 1000.4 | |
| 20260508051624 | 0 | 278 | 0.0 | 1.7 | 0.00 | 0.00 | 0.00 | 1000.4 | |
| 20260508051120 | 0 | 255 | 0.0 | 3.5 | 0.00 | 0.00 | 0.00 | 1000.4 | |
| 20260508050616 | 0 | 270 | 0.0 | 2.6 | 0.00 | 0.00 | 0.00 | 1000.5 | |
| 20260508050114 | 0 | 109 | 0.9 | 2.6 | 0.00 | 0.00 | 0.00 | 1000.3 | |
| 20260508045609 | 0 | 81 | 1.7 | 1.7 | 0.00 | 0.00 | 0.00 | 1000.4 | |
| 20260508045108 | 0 | 185 | 0.0 | 1.7 | 0.00 | 0.00 | 0.00 | 1000.5 | |
| 20260508044604 | 0 | 206 | 0.0 | 1.7 | 0.00 | 0.00 | 0.00 | 1000.3 | |
| 20260508044100 | 0 | 230 | 1.7 | 2.6 | 0.00 | 0.00 | 0.00 | 1000.2 | |
| 20260508043557 | 0 | 200 | 0.0 | 2.6 | 0.00 | 0.00 | 0.00 | 1000.4 | |
| 20260508043055 | 0 | 331 | 0.0 | 0.9 | 0.00 | 0.00 | 0.00 | 1000.3 | |
| 20260508042551 | 0 | 198 | 0.0 | 0.0 | 0.00 | 0.00 | 0.00 | 1000.2 | |
| 20260508042049 | 0 | 159 | 1.7 | 2.6 | 0.00 | 0.00 | 0.00 | 1000.1 | |
| 20260508041545 | 0 | 340 | 0.9 | 2.6 | 0.00 | 0.00 | 0.00 | 1000.3 | |
| 20260508041041 | 0 | 270 | 0.0 | 1.7 | 0.00 | 0.00 | 0.00 | 1000.2 | |
| 20260508040538 | 0 | 168 | 1.7 | 1.7 | 0.00 | 0.00 | 0.00 | 999.9 | |
| 20260508040036 | 0 | 245 | 2.6 | 4.3 | 0.00 | 0.00 | 0.00 | 999.9 | |
| 20260508035532 | 0 | 280 | 2.6 | 4.3 | 0.00 | 0.00 | 0.00 | 1000.1 | |
| 20260508035030 | 0 | 255 | 3.5 | 5.2 | 0.00 | 0.00 | 0.00 | 999.9 | |
| 20260508034527 | 0 | 281 | 1.7 | 4.3 | 0.00 | 0.00 | 0.00 | 999.9 | |
| 20260508034024 | 0 | 266 | 3.5 | 5.2 | 0.00 | 0.00 | 0.00 | 999.7 | |
| 20260508033521 | 0 | 285 | 4.3 | 6.1 | 0.00 | 0.00 | 0.00 | 999.7 | |
| 20260508033019 | 0 | 266 | 1.7 | 4.3 | 0.00 | 0.00 | 0.00 | 999.7 | |
| 20260508032516 | 0 | 256 | 4.3 | 4.3 | 0.00 | 0.00 | 0.00 | 999.7 | |
| 20260508032014 | 0 | 254 | 3.5 | 4.3 | 0.00 | 0.00 | 0.00 | 999.8 | |
| 20260508031510 | 0 | 278 | 0.9 | 3.5 | 0.00 | 0.00 | 0.00 | 999.5 | |
| 20260508031005 | 0 | 287 | 0.0 | 3.5 | 0.00 | 0.00 | 0.00 | 999.1 | |
| 20260508030503 | 0 | 294 | 2.6 | 2.6 | 0.00 | 0.00 | 0.00 | 999.4 | |
| 20260508030000 | 0 | 270 | 1.7 | 4.3 | 0.00 | 0.00 | 0.00 | 999.3 |